Terminal Aerodrome Forecast
Issued by NWS Binghamton, NY

Home | Current Version | Previous Version | Text Only | Print | Product List | Glossary On
Versions: 1 2 3 4 5 6 7 8 9 10 11 12 13 14 15 16 17 18 19 20
000
FTUS41 KBGM 261400 AAA
TAFBGM
TAF AMD
KBGM 261457Z 2615/2712 28007KT P6SM BKN025
      TEMPO 2615/2617 SCT025
     FM261700 26008KT P6SM SCT030 SCT150
     FM262200 22006KT P6SM SCT200=

USA.gov is the U.S. government's official web portal to all federal, state and local government web resources and services.